Torna al catalogo

COSMOS 1415

GLONASS

AttivoNavigazioneMEO
NORAD 13607·PAYLOAD·🇷🇺 Russia

Lanciato Oct 12, 1982 da Baikonur Cosmodrome

Loading…

Prossimi Passaggi (prossime 24 ore)

TLE

AggiornatoSource: Space-Track

Epoca: Sep 13, 2026, 11:24 UTC

1 13607U 82100E   26256.47535778 -.00000018  00000-0  00000-0 0  9995
2 13607  64.9214  63.7609 0004733  30.7432  12.8749  2.13810242342836

Traccia COSMOS 1415 in tempo reale con AllMySat

Download on the App Store